Location: Zagreb
(45.8000°N, 16.0000°E)
Time: 08:40:07
(UTC+02:00)

X-37B - Pass Details

Date: 27 June 2022
Orbit: 328 x 343 km, 45.0° (Epoch: 12 August)

Event Time Altitude Azimuth Distance (km) Brightness Sun altitude
Rises 21:35:19 0° 204° (SSW) 2,079 4.1 -6.9°
Reaches altitude 10° 21:38:14 10° 170° (S) 1,252 2.7 -7.2°
Maximum altitude 21:39:20 12° 147° (SSE) 1,160 2.3 -7.4°
Enters shadow 21:40:20 10° 125° (SE) 1,238 2.5 -7.5°
